Regional Weather Roundup
Issued by NWS Green Bay, WI

Home | Current Version | Previous Version | Graphics & Text | Print | Product List | Glossary Off
Versions: 1 2 3 4 5 6 7 8 9 10 11 12 13 14 15 16 17 18 19 20 21 22 23 24 25 26 27 28 29 30 31 32 33 34 35 36 37 38 39 40 41 42 43 44 45 46 47 48 49 50

000
ASUS43 KGRB 270511
RWRGRB

NORTH-CENTRAL AND NORTHEAST WISCONSIN REGIONAL WEATHER ROUNDUP
NATIONAL WEATHER SERVICE GREEN BAY WI
1200 AM CDT TUE JUN 27 2017

WIZ005-009-010>012-018-019-270600-
NORTH CENTRAL WISCONSIN

CITY           SKY/WX    TMP DP  RH WIND       PRES   REMARKS
IRONWOOD       NOT AVBL
MANITOWISH WTR PTCLDY    44  44 100 CALM      30.05S FOG
ARBOR VITAE    CLEAR     49  47  93 CALM      30.04S
EAGLE RIVER    CLEAR     45  45 100 CALM      30.04S
LAND O LAKES   CLEAR     43  43  99 CALM      30.05S
RHINELANDER    FOG       44  44 100 W5        30.06S VSB 3/4
PHILLIPS       PTCLDY    48  48 100 CALM      30.06S
ANTIGO         CLEAR     48  46  95 W6        30.06S
TOMAHAWK       NOT AVBL
MERRILL        CLEAR     45  45 100 CALM      30.07S
$$

WIZ013-073-270600-
NORTHEAST WISCONSIN

CITY           SKY/WX    TMP DP  RH WIND       PRES   REMARKS
IRON MOUNTAIN  CLEAR     46  42  86 CALM      30.01S
MARINETTE      CLEAR     52  49  89 W6        30.03R
OCONTO         PTCLDY    48  47  97 CALM      30.03S
$$

WIZ017-030-035>037-045-270600-
CENTRAL WISCONSIN

CITY           SKY/WX    TMP DP  RH WIND       PRES   REMARKS
MEDFORD        PTCLDY    50  46  87 W6        30.08S
WAUSAU         CLEAR     51  48  89 CALM      30.06S
MOSINEE        CLEAR     50  46  87 W6        30.08S
MARSHFIELD     CLEAR     50  46  86 W6        30.08R
WISC RAPIDS    CLEAR     49  47  93 W3        30.10R
STEVENS POINT  CLEAR     51  47  84 CALM      30.08S
WAUPACA        PTCLDY    55  49  81 W5        30.07S
SHAWANO        CLEAR     53  48  83 SW3       30.05R
CLINTONVILLE   PTCLDY    50  45  81 CALM      30.06S
WAUTOMA        CLEAR     48  47  96 CALM      30.09R
$$

WIZ038-039-048-051-270600-
FOX VALLEY

CITY           SKY/WX    TMP DP  RH WIND       PRES   REMARKS
NWS GREEN BAY  CLEAR     53  51  93 SW3       30.05R
APPLETON       CLEAR     54  45  71 SW9       30.05S
OSHKOSH        CLEAR     54  46  74 W3        30.06R
FOND DU LAC    CLEAR     52  46  80 SW6       30.08R
$$

WIZ022-050-052-270600-
EAST CENTRAL WISCONSIN

CITY           SKY/WX    TMP DP  RH WIND       PRES   REMARKS
EPHRAIM        FAIR      53  49  85 W6        30.01S
WASHINGTON ISL FAIR      46  45  97 CALM      30.00S
STURGEON BAY     N/A     52  49  89 SW5         N/A
MANITOWOC      CLEAR     52  49  89 W5        30.06R
SHEBOYGAN      CLEAR     49  49 100 SW5       30.07R
$$

LMZ563-521-522-541>543-270600-
LAKESHORE

STATION/POSITION TIME  TEMP    WIND        PRES    VSBY  WAVE
                       AIR SEA DIR/SP/G                  HT/PER
                 (UTC) (F)     (DEG/KT/KT) (MB)    (MI)  (FT/S)
SHEBOYGAN LKSHOR 0500   54     250/  4/  4 1018.1R
KEWAUNEE LKSHORE 0448   53     290/  5/  6 1016.7R
NORTHPORT PIER   0440   55     260/  3/  5 1015.9S
N MID LAKE BUOY  0450   57 55  250/  4/  4 1016.5S         1
S GREEN BAY BUOY 0500   60     240/ 14/ 16 1016.5
CHAMBERS ISLAND  0440   57     220/  4/  8 1015.9S
MENOMINEE LKSHOR 0448          240/  8/ 10 1015.8R
$$



USA.gov is the U.S. government's official web portal to all federal, state and local government web resources and services.